Location: Unnamed
(51.5169°N, 0.1311°W)
Time: 02:52:24
(UTC+00:00)

ACS3 Solar Sail - Visible Passes

Search period start: 06 March 2026 00:00
Search period end: 16 March 2026 00:00
Orbit: 889 x 972 km, 97.2° (Epoch: 5 March)

Date Brightness Start Highest point End Pass type
(mag) Time Alt. Az. Time Alt. Az. Time Alt. Az.
6 Mar 3.6 01:31:01 10° NNE 01:33:20 24° NNE 01:33:20 24° NNE visible
6 Mar 3.1 03:13:59 10° N 03:17:02 25° NNW 03:17:02 25° NNW visible
7 Mar 3.4 01:42:34 10° NNE 01:45:12 28° NNE 01:45:12 28° NNE visible
7 Mar 3.1 03:25:47 10° N 03:28:54 23° NW 03:28:54 23° NW visible
8 Mar 4.3 00:13:12 10° NE 00:13:17 10° NE 00:13:17 10° NE visible
8 Mar 3.2 01:54:06 10° NNE 01:56:59 31° NNE 01:56:59 31° NNE visible
8 Mar 3.2 03:37:33 10° N 03:40:41 21° NW 03:40:41 21° NW visible
9 Mar 4.2 00:24:09 10° NE 00:25:02 13° NE 00:25:02 13° NE visible
9 Mar 3.0 02:05:36 10° NNE 02:08:44 34° N 02:08:44 34° N visible
9 Mar 3.3 03:49:19 10° NNW 03:52:25 18° NW 03:52:25 18° NW visible
10 Mar 4.0 00:35:13 10° NE 00:36:43 16° NE 00:36:43 16° NE visible
10 Mar 2.8 02:17:04 10° N 02:20:24 36° N 02:20:24 36° N visible
10 Mar 3.4 04:01:05 10° NNW 04:04:06 16° NW 04:04:06 16° NW visible
11 Mar 3.8 00:46:20 10° NNE 00:48:20 19° NE 00:48:20 19° NE visible
11 Mar 2.7 02:28:30 10° N 02:32:01 37° N 02:32:01 37° N visible
11 Mar 3.5 04:12:55 10° NNW 04:15:34 13° NW 04:15:43 13° NW visible
12 Mar 3.6 00:57:29 10° NNE 00:59:54 22° NE 00:59:54 22° NE visible
12 Mar 2.7 02:39:53 10° N 02:43:35 36° NNW 02:43:35 36° NNW visible
12 Mar 3.6 04:25:00 10° NNW 04:26:38 11° NW 04:27:16 11° NW visible
13 Mar 3.4 01:08:36 10° NNE 01:11:24 26° NE 01:11:24 26° NE visible
13 Mar 2.7 02:51:14 10° N 02:55:05 34° NNW 02:55:05 34° NNW visible
14 Mar 3.2 01:19:42 10° NNE 01:22:52 31° NE 01:22:52 31° NE visible
14 Mar 2.8 03:02:34 10° N 03:06:32 31° NW 03:06:32 31° NW visible
15 Mar 2.9 01:30:47 10° NNE 01:34:15 36° NE 01:34:15 36° NE visible
15 Mar 2.9 03:13:51 10° N 03:17:55 28° NW 03:17:55 28° NW visible
